[[{"header":{"parameterUnit":"m.s-1","parameterCategory":1,"la1":30.2991,"la2":30.254,"lo1":-89.0895,"lo2":-89.0444,"dy":0.0017,"dx":0.0017,"nx":28,"ny":28,"refTime":"2024-07-22T03:00:00:Z","depth":0,"parameterNumber":2,"parameterNumberName":"U-component_of_WINDS"},"data":[0,0,0,0,0,0,0,0,0,0,0,0,0,0,0,0,0,0,0,0,0,0,0,0,0,0,0,0,0,0,0,0,0,0,0,0,0,0,0,0,0,0,0,0,0,0,0,0,0,0,0,0,0,0,0,0,0,0,1.672,1.672,0,1.676,1.6761,1.6761,1.6748,1.6747,1.6746,1.6746,1.6784,1.6785,1.6787,0,0,0,0,0,0,0,0,0,0,0,0,0,1.6627,1.6629,1.672,1.672,1.6721,1.676,1.6761,1.6761,1.6748,1.6747,1.6746,1.6745,1.6783,1.6785,1.6787,0,0,0,0,0,0,0,0,0,0,0,0,0,1.6667,1.663,1.672,1.6719,1.6719,1.676,1.6761,1.6761,1.6749,1.6747,1.6746,1.6745,1.6782,1.6785,1.6788,1.683,0,0,1.6796,1.6797,0,0,0,0,0,0,0,0,1.6665,1.6671,1.6719,1.6719,1.672,1.6748,1.6742,1.6784,1.6749,1.6737,1.6746,1.6744,1.6772,1.6776,1.6786,1.6832,1.6833,1.6796,1.6798,1.6799,1.68,0,0,0,0,0,0,0,1.6662,1.6669,1.6735,1.6719,1.672,1.6716,1.672,1.675,1.6761,1.6738,1.6737,1.6743,1.6772,1.6784,1.6787,1.6834,1.6796,1.6798,1.68,1.6801,1.6914,1.6915,0,0,0,0,0,0,1.666,1.6667,1.6734,1.6737,1.6689,1.6718,1.6723,1.674,1.6761,1.6763,1.6744,1.6742,1.678,1.6784,1.6788,1.6837,1.6799,1.6801,1.6803,1.6912,1.6914,1.6916,0,0,0,0,0,0,1.6658,1.6666,1.6733,1.6702,1.671,1.6721,1.674,1.6741,1.6753,1.6765,1.6767,1.6753,1.6779,1.6784,1.6819,1.6838,1.6803,1.6805,1.6911,1.6913,1.6915,1.6937,0,0,0,0,0,0,1.6655,1.6665,1.6682,1.6702,1.6711,1.6764,1.6742,1.6743,1.6758,1.6756,1.6775,1.6776,1.6778,1.6815,1.6822,1.6841,1.6807,1.6909,1.6912,1.6914,1.6934,1.6939,1.6943,0,0,0,0,0,1.6652,1.6687,1.6683,1.6692,1.6733,1.6765,1.6771,1.6773,1.6759,1.6776,1.6784,1.6776,1.6836,1.6819,1.6826,1.6847,1.6908,1.6911,1.6914,1.6932,1.6938,1.6943,0,0,0,0,0,0,1.6668,1.6689,1.6686,1.6728,1.6745,1.6763,1.6784,1.678,1.68,1.6797,1.6798,1.6802,1.6838,1.6846,1.6827,1.6888,1.687,1.6874,1.6881,1.6887,1.6891,1.6887,1.6809,0,0,0,0,0,1.6676,1.6702,1.6719,1.6754,1.6763,1.6772,1.6786,1.6787,1.6804,1.6811,1.6821,1.6837,1.6859,1.6874,1.6895,1.6936,1.6939,1.6954,1.6959,1.6962,1.6965,1.6986,1.6992,1.6926,1.6926,1.6926,0,0,1.6694,1.6709,1.6725,1.6758,1.6771,1.6796,1.6778,1.6806,1.6823,1.6815,1.6848,1.6856,1.6874,1.6912,1.6929,1.692,1.6985,1.6966,1.6969,1.697,1.6989,1.6996,1.7001,1.6928,1.6927,1.6927,0,0,1.6738,1.6753,1.6783,1.6797,1.6818,1.6823,1.6831,1.685,1.6855,1.6889,1.6882,1.6903,1.6942,1.6954,1.6966,1.7015,1.7007,1.7022,1.7044,1.7064,1.7069,1.7074,1.7089,1.7094,1.7025,1.7025,1.7025,0,1.6756,1.6795,1.6799,1.6827,1.684,1.6835,1.6865,1.6878,1.6904,1.6913,1.6903,1.6951,1.6963,1.7002,1.7014,1.7024,1.7031,1.7018,1.7069,1.7073,1.7077,1.7092,1.7098,1.7027,1.7027,1.7026,1.7026,0,1.6815,1.6842,1.6864,1.689,1.6906,1.6935,1.6942,1.6958,1.6958,1.6964,1.6997,1.7012,1.7035,1.7045,1.7044,1.7084,1.7077,1.7068,1.7049,1.7085,1.7098,1.7104,1.7029,1.7028,1.7028,1.7027,0,0,1.6868,1.6897,1.6905,1.6916,1.6938,1.6958,1.6986,1.701,1.7022,1.7041,1.7063,1.7096,1.7087,1.71,1.7101,1.7119,1.7154,1.7107,1.7108,1.7113,1.7195,1.72,1.7207,1.715,1.7151,1.7152,1.7193,0,1.6912,1.6962,1.6967,1.701,1.7034,1.7029,1.7053,1.7069,1.7075,1.7095,1.7102,1.7125,1.7113,1.7121,1.7138,1.7146,1.717,1.7143,1.7168,1.7169,1.7161,1.7214,1.7219,1.7257,1.7198,1.7199,1.72,0,1.697,1.699,1.7037,1.7055,1.7065,1.7086,1.7108,1.7128,1.7145,1.7148,1.7163,1.7161,1.7188,1.717,1.7206,1.7188,1.7199,1.7204,1.7205,1.7205,1.7185,1.7213,1.727,1.7274,1.7209,1.7208,1.7207,0,1.7001,1.704,1.7073,1.7083,1.7105,1.712,1.713,1.7146,1.716,1.7179,1.7187,1.7209,1.722,1.7236,1.7239,1.7226,1.7274,1.7257,1.7276,1.7276,1.7284,1.7283,1.7341,1.7295,1.7295,1.7295,1.7295,0,1.7048,1.7075,1.7087,1.7106,1.7137,1.7142,1.7171,1.718,1.7195,1.7215,1.7213,1.7231,1.7236,1.7255,1.7259,1.7286,1.7292,1.7294,1.7294,1.7293,1.7292,1.7298,1.7294,1.7297,1.7296,1.7296,1.7296,0,1.7086,1.7095,1.713,1.7149,1.7154,1.7176,1.7191,1.7209,1.7216,1.7242,1.7248,1.7258,1.7281,1.7287,1.7313,1.7315,1.7347,1.7346,1.7342,1.7341,1.7358,1.7356,1.742,1.7427,1.7379,1.738,1.738,0,1.7114,1.7136,1.7157,1.7171,1.7182,1.7204,1.7218,1.7224,1.7238,1.7259,1.7274,1.7297,1.7314,1.735,1.7359,1.7379,1.7377,1.7398,1.738,1.7377,1.7374,1.7372,1.7373,1.7401,1.7401,1.7402,1.7402,0,1.7162,1.7166,1.7187,1.7209,1.7226,1.7244,1.7261,1.7272,1.728,1.7296,1.7319,1.7333,1.7361,1.7382,1.7402,1.7411,1.7407,1.7408,1.7413,1.7411,1.7406,1.7406,1.7348,1.7406,1.7405,1.7405,1.7405,1.7405,1.7195,1.7213,1.7231,1.7254,1.7267,1.7283,1.73,1.731,1.733,1.7353,1.7355,1.738,1.7395,1.7422,1.7433,1.7451,1.7444,1.7452,1.7454,1.7455,1.7455,1.7405,1.7455,1.7455,1.7455,1.7455,1.7455,0,1.724,1.7252,1.7273,1.7297,1.7315,1.7312,1.733,1.7344,1.7367,1.7382,1.74,1.7426,1.7447,1.7458,1.7478,1.7491,1.7489,1.7496,1.7493,1.7495,1.7461,1.7454,1.7496,1.7496,1.7496,1.7496,1.7496,1.7496,1.7266,1.7296,1.7301,1.7337,1.7348,1.7373,1.7384,1.7398,1.741,1.7439,1.7457,1.7465,1.7478,1.7499,1.7518,1.752,1.7527,1.7533,1.7535,1.7502,1.7498,1.7494,1.7486,1.7535,1.7535,1.7567,1.7567,1.7568]},{"header":{"parameterUnit":"m.s-1","parameterCategory":1,"la1":30.2991,"la2":30.254,"lo1":-89.0895,"lo2":-89.0444,"dy":0.0017,"dx":0.0017,"nx":28,"ny":28,"refTime":"2024-07-22T03:00:00:Z","depth":0,"parameterNumber":3,"parameterNumberName":"V-component_of_WINDS"},"data":[0,0,0,0,0,0,0,0,0,0,0,0,0,0,0,0,0,0,0,0,0,0,0,0,0,0,0,0,0,0,0,0,0,0,0,0,0,0,0,0,0,0,0,0,0,0,0,0,0,0,0,0,0,0,0,0,0,0,2.0241,2.0241,0,2.0303,2.0303,2.0304,2.028,2.0279,2.0277,2.0276,2.034,2.0343,2.0346,0,0,0,0,0,0,0,0,0,0,0,0,0,2.01,2.0103,2.0241,2.0241,2.0242,2.0303,2.0303,2.0304,2.028,2.0279,2.0277,2.0275,2.0339,2.0342,2.0346,0,0,0,0,0,0,0,0,0,0,0,0,0,2.0162,2.0104,2.024,2.0238,2.0238,2.0302,2.0303,2.0304,2.0281,2.0279,2.0276,2.0274,2.0338,2.0342,2.0346,2.0418,0,0,2.036,2.0362,0,0,0,0,0,0,0,0,2.0158,2.0167,2.0237,2.0238,2.0238,2.0281,2.0277,2.0342,2.0281,2.0265,2.0276,2.0273,2.0322,2.0328,2.0344,2.0421,2.0423,2.0361,2.0364,2.0366,2.0367,0,0,0,0,0,0,0,2.0154,2.0164,2.0265,2.0238,2.0239,2.0233,2.0239,2.029,2.0305,2.0266,2.0264,2.0272,2.0322,2.034,2.0346,2.0424,2.0361,2.0365,2.0368,2.0369,2.056,2.0562,0,0,0,0,0,0,2.015,2.0161,2.0263,2.0267,2.0192,2.0237,2.0244,2.027,2.0304,2.0307,2.0274,2.0271,2.0333,2.034,2.0348,2.0432,2.0365,2.037,2.0372,2.0557,2.056,2.0563,0,0,0,0,0,0,2.0147,2.0159,2.0261,2.0213,2.0226,2.0242,2.0271,2.0272,2.029,2.031,2.0312,2.0289,2.0332,2.0341,2.04,2.0434,2.0372,2.0376,2.0555,2.0558,2.0561,2.0601,0,0,0,0,0,0,2.0143,2.0158,2.0186,2.0214,2.0228,2.0312,2.0273,2.0275,2.0298,2.0294,2.0325,2.0328,2.0331,2.0393,2.0404,2.0439,2.038,2.0552,2.0556,2.056,2.0597,2.0606,2.0613,0,0,0,0,0,2.0138,2.0195,2.0187,2.02,2.0263,2.0314,2.0323,2.0324,2.0301,2.0328,2.0341,2.0327,2.0428,2.0399,2.0412,2.0448,2.055,2.0555,2.056,2.0593,2.0604,2.0613,0,0,0,0,0,0,2.0171,2.0199,2.0191,2.0259,2.0284,2.031,2.0345,2.0336,2.0369,2.0364,2.0365,2.0372,2.0432,2.0446,2.0413,2.0517,2.0485,2.0493,2.0506,2.0516,2.0524,2.0519,2.0383,0,0,0,0,0,2.0186,2.0225,2.0247,2.0305,2.0319,2.033,2.0352,2.0351,2.0378,2.0388,2.0405,2.0431,2.0469,2.0493,2.0529,2.0599,2.0604,2.063,2.0638,2.0644,2.0651,2.0687,2.0698,2.058,2.058,2.058,0,0,2.0218,2.0238,2.0263,2.0313,2.0332,2.0372,2.0339,2.0383,2.0413,2.0395,2.0451,2.0464,2.0493,2.0557,2.0586,2.0571,2.0684,2.0651,2.0656,2.0659,2.0693,2.0704,2.0714,2.0583,2.0583,2.0582,0,0,2.0296,2.0316,2.0365,2.0385,2.0415,2.0422,2.0434,2.0461,2.0468,2.0525,2.0511,2.0546,2.0611,2.0632,2.0651,2.0734,2.0723,2.0746,2.0788,2.0823,2.0832,2.084,2.0869,2.0879,2.0753,2.0753,2.0753,0,2.0332,2.0392,2.0392,2.0437,2.0458,2.0443,2.0493,2.0512,2.0552,2.0567,2.0549,2.0628,2.0647,2.0715,2.0735,2.0751,2.0764,2.0742,2.0831,2.0839,2.0847,2.0874,2.0884,2.0755,2.0755,2.0755,2.0755,0,2.0434,2.0475,2.0512,2.055,2.0575,2.0622,2.0629,2.0655,2.0651,2.0659,2.0715,2.0737,2.0775,2.0791,2.0789,2.0858,2.0847,2.083,2.0798,2.086,2.0886,2.0896,2.0759,2.0758,2.0757,2.0757,0,0,2.0536,2.0572,2.0585,2.0601,2.0632,2.0664,2.0709,2.0747,2.0768,2.0796,2.0833,2.0887,2.0871,2.0892,2.0891,2.0922,2.0985,2.0901,2.0902,2.0915,2.1061,2.1073,2.1085,2.0977,2.0979,2.0981,2.1058,0,2.0616,2.0695,2.0696,2.0769,2.0806,2.0791,2.0831,2.0853,2.0862,2.0894,2.0904,2.0941,2.0918,2.093,2.096,2.0971,2.1014,2.0966,2.1011,2.1013,2.1004,2.1099,2.1112,2.1184,2.1068,2.107,2.1071,0,2.072,2.0749,2.0826,2.0849,2.0865,2.09,2.0933,2.0965,2.099,2.0994,2.1017,2.1011,2.1056,2.1022,2.1083,2.105,2.1069,2.1077,2.1079,2.1083,2.1045,2.1104,2.1207,2.1217,2.1087,2.1086,2.1084,0,2.0785,2.0844,2.0897,2.0911,2.094,2.0965,2.0978,2.1001,2.1023,2.1052,2.1065,2.1099,2.1118,2.1144,2.1146,2.1122,2.1208,2.1175,2.1211,2.1211,2.123,2.1229,2.1336,2.1243,2.1243,2.1243,2.1243,0,2.0873,2.092,2.0926,2.0959,2.101,2.101,2.1061,2.1072,2.1092,2.1126,2.1115,2.1147,2.1149,2.1181,2.1184,2.1233,2.1242,2.1246,2.1246,2.1246,2.1246,2.1258,2.1253,2.1246,2.1245,2.1245,2.1244,0,2.0955,2.0961,2.1017,2.1039,2.1046,2.1083,2.1101,2.1132,2.1138,2.1181,2.1191,2.1202,2.1239,2.1244,2.1288,2.129,2.1349,2.1344,2.134,2.1339,2.1375,2.1371,2.1494,2.151,2.1407,2.1408,2.1409,0,2.1011,2.1046,2.1072,2.1093,2.1107,2.1142,2.1164,2.1164,2.1187,2.1217,2.1243,2.1279,2.1308,2.1368,2.138,2.1413,2.1408,2.1449,2.1413,2.1412,2.1407,2.1405,2.1408,2.1456,2.1457,2.1458,2.1458,0,2.1109,2.1109,2.1141,2.1173,2.1198,2.1224,2.1248,2.1266,2.1269,2.1295,2.1333,2.1355,2.1399,2.1435,2.1467,2.148,2.1469,2.1469,2.1479,2.148,2.1476,2.1477,2.1358,2.1467,2.1466,2.1465,2.1465,2.1464,2.1178,2.1208,2.123,2.1265,2.1283,2.1305,2.1334,2.1343,2.1375,2.141,2.1408,2.1449,2.1471,2.1513,2.1528,2.156,2.1547,2.1562,2.1565,2.1569,2.1571,2.1471,2.1566,2.1566,2.1566,2.1565,2.1565,0,2.1275,2.1287,2.1319,2.1352,2.1379,2.1367,2.1392,2.1415,2.1451,2.1472,2.15,2.1543,2.1576,2.159,2.1623,2.1645,2.1641,2.1654,2.1652,2.1655,2.1582,2.157,2.1656,2.1656,2.1656,2.1656,2.1656,2.1656,2.1328,2.1378,2.138,2.1438,2.1451,2.149,2.1505,2.1525,2.1542,2.1589,2.1617,2.1625,2.1643,2.1677,2.1707,2.1709,2.1722,2.1736,2.1737,2.1669,2.166,2.1651,2.1639,2.1739,2.1739,2.1806,2.1807,2.1807]}]]